Home > Weather > Bielsko-Biała > Past weeks

Flag for Poland Weather for the Past 2 Weeks in Bielsko-Biała, Poland

Now
36 °F

Overcast.


Feels Like: 34 °F
Forecast: 30 / 42 °F
Wind: 3 mph from Southwest

Location: Katowice

Current Time: Feb 11, 2016 at 11:05:12 PM

Latest Report: Feb 11, 2016 at 9:00 PM


Visibility: 6 mi

Pressure: 29.71 "Hg

Humidity: 77%

Dew point: 30 °F

Location of Bielsko-BiałaLocation

Historic Weather in Bielsko-Biała — Graph

°F

Bielsko-Biała Temperature Yesterday

Maximum temperature yesterday: 53 °F (at 12:00 AM)
Minimum temperature yesterday: 33 °F (at 7:00 PM)
Average temperature yesterday: 40 °F

High & Low Weather Summary for the Past Weeks

 TemperatureHumidityPressure
High54 °F (Jan 30, 1:00 PM)96% (Feb 1, 7:00 PM)30.37 "Hg (Feb 1, 7:00 PM)
Low29 °F (Feb 7, 7:00 AM)38% (Jan 30, 1:00 PM)29.23 "Hg (Feb 10, 6:00 AM)
Average41 °F74%29.92 "Hg
* Reported Jan 27 9:00 PM — Feb 11 9:00 PM, Bielsko-Biała, Weather by CustomWeather, © 2016

Note: Actual official high and low records may vary slightly from our data, if they occured in-between our weather recording intervals... More about our weather records

Advertising

Bielsko-Biała Weather History for the Previous 24 Hours

 ConditionsComfort  
Time TempWeatherWind HumidityBarometerVisibility
9:00 PM
Thu, Feb 11
36 °FOvercast.3 mph77%29.71 "Hg6 mi
8:00 PM37 °FPassing clouds.5 mph77%29.70 "Hg9 mi
7:00 PM37 °FPassing clouds.3 mph71%29.70 "Hg6 mi
6:00 PM38 °FOvercast.3 mph71%29.68 "Hg6 mi
5:00 PM39 °FPassing clouds.5 mph67%29.66 "Hg12 mi
4:00 PM41 °FPartly sunny.5 mph60%29.63 "Hg19 mi
3:00 PM41 °FPartly sunny.6 mph60%29.61 "Hg19 mi
2:00 PM42 °FOvercast.6 mph67%29.60 "Hg19 mi
1:00 PM41 °FOvercast.7 mph70%29.59 "Hg19 mi
12:00 PM40 °FSprinkles. Overcast.5 mph81%29.59 "Hg9 mi
11:00 AM37 °FFog.5 mph93%29.59 "Hg4 mi
10:00 AM34 °FLow clouds.5 mph95%29.58 "Hg2 mi
9:00 AM35 °FSprinkles. Low clouds.5 mph94%29.56 "Hg2 mi
8:00 AM33 °FLow clouds.3 mph94%29.55 "Hg2 mi
7:00 AM33 °FSnow showers. Low clouds.6 mph90%29.54 "Hg1 mi
6:00 AM35 °FOvercast.3 mph90%29.50 "Hg6 mi
5:00 AM35 °FLight rain. Overcast.3 mph88%29.50 "Hg5 mi
4:00 AM35 °FOvercast.5 mph90%29.47 "Hg12 mi
2:00 AM35 °FLight rain. Overcast.5 mph94%29.44 "Hg5 mi
1:00 AM33 °FLight rain. Overcast.2 mph95%29.44 "Hg2 mi
12:00 AM34 °FLight rain. Overcast.3 mph94%29.41 "Hg2 mi
11:00 PM
Wed, Feb 10
35 °FLight rain. Overcast.5 mph94%29.41 "Hg2 mi
Weather by CustomWeather, © 2016

See weather overviewHow to use our weather pages